TimeEDT,TemperatureF,Dew PointF,Humidity,Sea Level PressureIn,VisibilityMPH,Wind Direction,Wind SpeedMPH,Gust SpeedMPH,PrecipitationIn,Events,Conditions,WindDirDegrees,DateUTC
12:15 AM,53.4,52.9,98,30.23,5.0,Calm,Calm,-,N/A,,Clear,0,2013-10-31 04:15:00
12:35 AM,53.6,53.6,100,30.23,7.0,Calm,Calm,-,N/A,,Clear,0,2013-10-31 04:35:00
12:55 AM,52.7,52.7,100,30.23,7.0,Calm,Calm,-,N/A,,Clear,0,2013-10-31 04:55:00
1:15 AM,53.4,53.4,100,30.22,7.0,Calm,Calm,-,N/A,,Clear,0,2013-10-31 05:15:00
1:35 AM,52.0,52.0,100,30.23,7.0,Calm,Calm,-,N/A,,Clear,0,2013-10-31 05:35:00
1:55 AM,52.7,52.7,100,30.23,7.0,Calm,Calm,-,N/A,,Clear,0,2013-10-31 05:55:00
2:15 AM,52.0,51.8,99,30.23,7.0,Calm,Calm,-,N/A,,Clear,0,2013-10-31 06:15:00
2:35 AM,51.3,51.3,100,30.23,7.0,Calm,Calm,-,N/A,,Clear,0,2013-10-31 06:35:00
2:55 AM,52.2,52.0,99,30.22,5.0,Calm,Calm,-,N/A,,Clear,0,2013-10-31 06:55:00
3:15 AM,51.8,51.8,100,30.22,1.0,Calm,Calm,-,N/A,,Mist,0,2013-10-31 07:15:00
3:35 AM,52.2,52.2,100,30.21,3.0,Calm,Calm,-,N/A,,Clear,0,2013-10-31 07:35:00
3:55 AM,51.6,51.6,100,30.21,4.0,Calm,Calm,-,N/A,,Clear,0,2013-10-31 07:55:00
4:15 AM,50.7,50.7,100,30.21,5.0,Calm,Calm,-,N/A,,Clear,0,2013-10-31 08:15:00
4:35 AM,50.5,50.5,100,30.20,3.0,Calm,Calm,-,N/A,,Clear,0,2013-10-31 08:35:00
4:55 AM,50.2,50.2,100,30.20,0.2,Calm,Calm,-,N/A,Fog,Fog,0,2013-10-31 08:55:00
5:15 AM,50.2,50.2,100,30.20,4.0,Calm,Calm,-,N/A,,Clear,0,2013-10-31 09:15:00
5:35 AM,50.9,50.9,100,30.20,4.0,Calm,Calm,-,N/A,,Clear,0,2013-10-31 09:35:00
5:55 AM,50.7,50.7,100,30.20,2.5,Calm,Calm,-,N/A,,Scattered Clouds,0,2013-10-31 09:55:00
6:15 AM,51.1,51.1,100,30.20,0.5,Calm,Calm,-,N/A,Fog,Fog,0,2013-10-31 10:15:00
6:35 AM,51.4,51.4,100,30.20,1.2,Calm,Calm,-,N/A,,Mist,0,2013-10-31 10:35:00
6:55 AM,51.4,51.4,100,30.19,2.5,Calm,Calm,-,N/A,,Clear,0,2013-10-31 10:55:00
7:15 AM,51.4,51.4,100,30.19,4.0,Calm,Calm,-,N/A,,Clear,0,2013-10-31 11:15:00
7:35 AM,51.3,51.3,100,30.19,3.0,Calm,Calm,-,N/A,,Clear,0,2013-10-31 11:35:00
7:55 AM,51.8,51.8,100,30.19,3.0,Calm,Calm,-,N/A,,Clear,0,2013-10-31 11:55:00
8:15 AM,53.2,53.2,100,30.20,4.0,Calm,Calm,-,N/A,,Clear,0,2013-10-31 12:15:00
8:35 AM,53.6,53.6,100,30.20,3.0,Calm,Calm,-,N/A,,Clear,0,2013-10-31 12:35:00
8:55 AM,54.5,54.5,100,30.20,3.0,Calm,Calm,-,N/A,,Clear,0,2013-10-31 12:55:00
9:15 AM,55.0,55.0,100,30.20,2.0,Calm,Calm,-,N/A,,Clear,0,2013-10-31 13:15:00
9:35 AM,55.6,55.6,100,30.19,3.0,Calm,Calm,-,N/A,,Clear,0,2013-10-31 13:35:00
9:55 AM,56.7,56.7,100,30.19,4.0,Calm,Calm,-,N/A,,Clear,0,2013-10-31 13:55:00
10:15 AM,58.1,58.1,100,30.19,4.0,Calm,Calm,-,N/A,,Clear,0,2013-10-31 14:15:00
10:35 AM,58.5,58.1,99,30.18,7.0,Calm,Calm,-,N/A,,Clear,0,2013-10-31 14:35:00
10:55 AM,59.4,57.2,93,30.18,10.0,Calm,Calm,-,N/A,,Clear,0,2013-10-31 14:55:00
11:15 AM,61.2,56.3,84,30.17,10.0,Calm,Calm,-,N/A,,Clear,0,2013-10-31 15:15:00
11:35 AM,62.4,55.9,79,30.16,10.0,Calm,Calm,-,N/A,,Clear,0,2013-10-31 15:35:00
11:55 AM,64.0,56.1,75,30.16,10.0,Calm,Calm,-,N/A,,Clear,0,2013-10-31 15:55:00
12:15 PM,64.4,55.8,73,30.15,10.0,Calm,Calm,-,N/A,,Clear,0,2013-10-31 16:15:00
12:35 PM,64.8,56.1,74,30.15,10.0,Calm,Calm,-,N/A,,Clear,0,2013-10-31 16:35:00
12:55 PM,64.9,55.8,72,30.14,10.0,Calm,Calm,-,N/A,,Scattered Clouds,0,2013-10-31 16:55:00
1:15 PM,65.3,55.6,71,30.12,10.0,Calm,Calm,-,N/A,,Scattered Clouds,0,2013-10-31 17:15:00
1:35 PM,65.8,55.6,69,30.11,10.0,Calm,Calm,-,N/A,,Scattered Clouds,0,2013-10-31 17:35:00
1:55 PM,66.9,55.2,66,30.12,10.0,SW,3.5,-,N/A,,Scattered Clouds,220,2013-10-31 17:55:00
2:15 PM,67.1,54.0,63,30.10,10.0,SW,9.2,-,N/A,,Scattered Clouds,230,2013-10-31 18:15:00
2:35 PM,67.5,53.6,61,30.09,10.0,SW,9.2,-,N/A,,Scattered Clouds,220,2013-10-31 18:35:00
2:55 PM,67.5,53.6,61,30.09,10.0,SW,3.5,-,N/A,,Overcast,220,2013-10-31 18:55:00
3:15 PM,67.3,53.6,61,30.07,10.0,South,4.6,-,N/A,,Overcast,180,2013-10-31 19:15:00
3:35 PM,67.3,54.3,63,30.05,10.0,South,3.5,-,N/A,,Mostly Cloudy,180,2013-10-31 19:35:00
3:55 PM,66.9,55.4,66,30.05,10.0,South,4.6,-,N/A,,Mostly Cloudy,170,2013-10-31 19:55:00
4:15 PM,66.4,55.9,69,30.05,10.0,South,6.9,-,N/A,,Mostly Cloudy,180,2013-10-31 20:15:00
4:35 PM,66.2,55.9,69,30.05,10.0,SSE,5.8,-,N/A,,Overcast,160,2013-10-31 20:35:00
4:55 PM,65.8,56.1,71,30.03,10.0,South,5.8,-,N/A,,Overcast,170,2013-10-31 20:55:00
5:15 PM,65.7,56.5,72,30.03,10.0,South,4.6,-,N/A,,Overcast,170,2013-10-31 21:15:00
5:35 PM,65.1,56.5,74,30.02,10.0,Calm,Calm,-,N/A,,Mostly Cloudy,0,2013-10-31 21:35:00
5:55 PM,64.4,56.7,76,30.02,10.0,Calm,Calm,-,N/A,,Mostly Cloudy,0,2013-10-31 21:55:00
6:15 PM,63.5,57.2,80,30.00,10.0,Calm,Calm,-,N/A,,Scattered Clouds,0,2013-10-31 22:15:00
6:35 PM,63.1,57.4,81,30.00,10.0,ESE,3.5,-,N/A,,Scattered Clouds,120,2013-10-31 22:35:00
6:55 PM,62.4,57.2,83,30.00,10.0,Calm,Calm,-,N/A,,Scattered Clouds,0,2013-10-31 22:55:00
7:15 PM,62.2,57.2,84,30.01,10.0,WNW,4.6,-,N/A,,Scattered Clouds,290,2013-10-31 23:15:00
7:35 PM,61.0,57.6,88,30.01,10.0,Calm,Calm,-,N/A,,Mostly Cloudy,0,2013-10-31 23:35:00
7:55 PM,60.3,58.1,93,30.01,10.0,Calm,Calm,-,N/A,,Mostly Cloudy,0,2013-10-31 23:55:00
8:15 PM,60.1,57.6,91,30.01,10.0,Calm,Calm,-,N/A,,Scattered Clouds,0,2013-11-01 00:15:00
8:35 PM,59.2,57.6,94,30.00,10.0,Calm,Calm,-,N/A,,Clear,0,2013-11-01 00:35:00
8:55 PM,58.8,57.6,96,29.99,10.0,Calm,Calm,-,N/A,,Scattered Clouds,0,2013-11-01 00:55:00
9:15 PM,60.1,57.4,91,29.97,10.0,Calm,Calm,-,N/A,,Scattered Clouds,0,2013-11-01 01:15:00
9:35 PM,59.9,57.4,91,29.97,10.0,Calm,Calm,-,N/A,,Scattered Clouds,0,2013-11-01 01:35:00
9:55 PM,59.0,57.6,95,29.96,10.0,Calm,Calm,-,N/A,,Mostly Cloudy,0,2013-11-01 01:55:00
10:15 PM,60.3,57.9,92,29.96,10.0,Calm,Calm,-,N/A,,Overcast,0,2013-11-01 02:15:00
10:35 PM,60.1,57.7,92,29.95,10.0,Calm,Calm,-,N/A,,Overcast,0,2013-11-01 02:35:00
10:55 PM,62.6,58.6,87,29.95,10.0,Calm,Calm,-,N/A,,Overcast,0,2013-11-01 02:55:00
11:15 PM,60.8,58.1,91,29.95,10.0,Calm,Calm,-,N/A,,Overcast,0,2013-11-01 03:15:00
11:35 PM,62.1,59.4,91,29.94,10.0,SSW,4.6,-,N/A,,Overcast,200,2013-11-01 03:35:00
11:55 PM,64.8,59.4,83,29.92,10.0,Calm,Calm,-,N/A,,Overcast,0,2013-11-01 03:55:00